Location: Berlin
(38.3226°N, 75.2177°W)
Time: 17:23:18
(UTC+00:00)

SL-14 R/B - Pass Details

Date: 26 October 2020
Orbit: 517 x 555 km, 82.4° (Epoch: 03 December)

Event Time Altitude Azimuth Distance (km) Brightness Sun altitude
Rises 10:10:12 0° 202° (SSW) 2,675 6.7 -14.5°
Reaches altitude 10° 10:12:24 10° 209° (SSW) 1,795 5.7 -14.1°
Maximum altitude 10:16:10 42° 281° (W) 788 3.6 -13.4°
Drops below altitude 10° 10:20:00 10° 353° (N) 1,829 5.8 -12.6°
Sets 10:22:16 0° 0° (N) 2,733 6.8 -12.2°
